Regional Weather Roundup
Issued by NWS

Home | Current Version | Previous Version | Graphics & Text | Print | Product List | Glossary On
Versions: 1 2 3 4 5 6 7 8 9 10 11 12 13 14 15 16 17 18 19 20 21 22 23 24 25 26 27 28 29 30 31 32 33 34 35 36 37 38 39 40 41 42 43 44 45 46 47 48 49 50
000
ASUS43 KMKX 250621
RWRWI

WISCONSIN REGIONAL WEATHER ROUNDUP
NATIONAL WEATHER SERVICE MILWAUKEE/SULLIVAN WI
100 AM CDT WED MAY 25 2016

NOTE: "FAIR" INDICATES FEW OR NO CLOUDS BELOW 12,000 FEET WITH NO
SIGNIFICANT WEATHER AND/OR OBSTRUCTIONS TO VISIBILITY.

WIZ001-002-006>008-014>016-023>028-250700-
NORTHWEST WISCONSIN

CITY           SKY/WX    TMP DP  RH WIND       PRES   REMARKS
SUPERIOR ARPT  DRZL/FOG  46  46 100 E10G18    30.03F VSB 3/4
6HR MIN TEMP:  46; 6HR MAX TEMP:  50;

ASHLAND        FOG       49  49 100 NE8       30.03R VSB 1/4
6HR MIN TEMP:  48; 6HR MAX TEMP:  62;

HAYWARD        CLEAR     59  55  87 NE5       29.98F
6HR MIN TEMP:  58; 6HR MAX TEMP:  77;

SIREN          CLEAR     59  57  92 NE6       29.97R
6HR MIN TEMP:  58; 6HR MAX TEMP:  78;

CUMBERLAND     CLEAR     61  57  88 CALM      29.97R
RICE LAKE      CLEAR     57  55  92 CALM      29.98S
6HR MIN TEMP:  56; 6HR MAX TEMP:  78;

CHETEK         CLEAR     59  58  95 E5        29.98R
6HR MIN TEMP:  58; 6HR MAX TEMP:  78;

LADYSMITH      CLEAR     62  59  89 E6        30.00S
6HR MIN TEMP:  61; 6HR MAX TEMP:  77;

EAU CLAIRE     CLEAR     58  54  86 NE3       29.95R
6HR MIN TEMP:  57; 6HR MAX TEMP:  81;

MENOMONIE      CLEAR     60  55  86 CALM      29.95R
6HR MIN TEMP:  60; 6HR MAX TEMP:  82;

NEW RICHMOND   CLEAR     63  54  70 E5        29.95R
6HR MIN TEMP:  61; 6HR MAX TEMP:  78;

OSCEOLA        CLEAR     61  61 100 E5        29.96S
6HR MIN TEMP:  60; 6HR MAX TEMP:  80;

$$

WIZ003>005-009-010-017-018-250700-
NORTH CENTRAL WISCONSIN

CITY           SKY/WX    TMP DP  RH WIND       PRES   REMARKS
MANITOWISH WTR NOT AVBL
ARBOR VITAE    CLEAR     54  52  95 CALM      30.01R FOG
6HR MIN TEMP:  53; 6HR MAX TEMP:  72;

WOODRUFF       CLEAR     54  52  95 CALM      30.01R FOG
6HR MIN TEMP:  53; 6HR MAX TEMP:  72;

RHINELANDER    FOG       54  53  97 CALM      30.01S VSB 1/2
6HR MIN TEMP:  51; 6HR MAX TEMP:  75; 6HR PCP:  0.01;

EAGLE RIVER    FOG       56  56 100 CALM      30.01S VSB<1/4
LAND O LAKES   FOG       61  61 100 N5        30.02S VSB 1
6HR MIN TEMP:  58; 6HR MAX TEMP:  68;

PHILLIPS       FOG       55  55 100 CALM      29.99F VSB 1/2
6HR MIN TEMP:  55; 6HR MAX TEMP:  75;

TOMAHAWK       CLEAR     52  51  95 CALM      30.01S FOG
6HR MIN TEMP:  51; 6HR MAX TEMP:  75;

MEDFORD        CLEAR     57  57  97 NE5       29.99S
6HR MIN TEMP:  57; 6HR MAX TEMP:  75;

MERRILL        CLEAR     55  55 100 CALM      30.00S
$$

WIZ029-030-035-036-043>047-250700-
CENTRAL WISCONSIN

CITY           SKY/WX    TMP DP  RH WIND       PRES   REMARKS
WAUSAU         CLEAR     64  57  78 CALM      29.97R
6HR MIN TEMP:  64; 6HR MAX TEMP:  80;

MOSINEE        CLEAR     59  55  88 N7        29.99R
MARSHFIELD     CLEAR     62  56  80 NE5       29.96S
6HR MIN TEMP:  61; 6HR MAX TEMP:  79;

STEVENS POINT  CLEAR     54  52  94 CALM      29.98R
6HR MIN TEMP:  54; 6HR MAX TEMP:  78;

WAUPACA        CLEAR     60  56  88 CALM      29.96S
6HR MIN TEMP:  60; 6HR MAX TEMP:  82;

WAUTOMA        CLEAR     57  54  89 CALM      29.96S
6HR MIN TEMP:  57; 6HR MAX TEMP:  82;

WISC RAPIDS    CLEAR     59  55  87 CALM      29.97S
6HR MIN TEMP:  59; 6HR MAX TEMP:  80;

CAMP DOUGLAS   FOG       52  52 100 CALM      29.96R VSB 1
$$

WIZ011>013-019>022-031-037>040-048>050-250700-
NORTHEAST WISCONSIN

CITY           SKY/WX    TMP DP  RH WIND       PRES   REMARKS
ANTIGO         CLEAR     55  55  97 N6        30.00S
6HR MIN TEMP:  54; 6HR MAX TEMP:  73;

SHAWANO        CLEAR     63  58  85 N3        29.96S
6HR MIN TEMP:  62; 6HR MAX TEMP:  81;

OCONTO         MOCLDY   N/A N/A N/A CALM      29.95S VSB 3/4
STURGEON BAY   NOT AVBL
GREEN BAY      CLEAR     62  59  90 VRB5      29.95R
6HR MIN TEMP:  61; 6HR MAX TEMP:  81;

MANITOWOC      CLEAR     57  55  93 CALM      29.96R
6HR MIN TEMP:  57; 6HR MAX TEMP:  72;

APPLETON       CLEAR     64  54  68 CALM      29.94F
CLINTONVILLE   CLEAR     59  54  82 CALM      29.96S
OSHKOSH        CLEAR     62  57  83 CALM      29.95S
6HR MIN TEMP:  60; 6HR MAX TEMP:  79;

$$

WIZ032>034-041-042-053>061-250700-
SOUTHWEST WISCONSIN

CITY           SKY/WX    TMP DP  RH WIND       PRES   REMARKS
LA CROSSE      CLEAR     65  59  81 E7        29.94R
6HR MIN TEMP:  65; 6HR MAX TEMP:  83;

SPARTA         CLEAR     53  53  98 CALM      29.96S
6HR MIN TEMP:  53; 6HR MAX TEMP:  80;

VIROQUA        CLEAR     65  57  74 E5        29.96S
6HR MIN TEMP:  63; 6HR MAX TEMP:  80;

BOSCOBEL       FOG       59  58  96 CALM      29.95R VSB 3/4
6HR MIN TEMP:  58; 6HR MAX TEMP:  84;

PRAIRIE DU CHI CLEAR     64  61  90 CALM      29.94R
6HR MIN TEMP:  63; 6HR MAX TEMP:  82;

PLATTEVILLE    PTCLDY    69  61  75 SE6       29.95S
6HR MIN TEMP:  68; 6HR MAX TEMP:  82;

$$

WIZ056-057-062-063-064-067-068-250700-
SOUTH CENTRAL WISCONSIN

CITY           SKY/WX    TMP DP  RH WIND       PRES   REMARKS
REEDSBURG      CLEAR     58  58  98 CALM      29.95S
6HR MIN TEMP:  58; 6HR MAX TEMP:  79;

BARABOO/DELLS  CLEAR     59  55  88 CALM      29.96R
6HR MIN TEMP:  59; 6HR MAX TEMP:  80;

LONE ROCK      CLEAR     61  58  90 CALM      29.96R
6HR MIN TEMP:  59; 6HR MAX TEMP:  83;

MINERAL POINT  CLEAR     70  59  68 SE5       29.97R
MADISON        CLEAR     63  59  87 CALM      29.95R
6HR MIN TEMP:  62; 6HR MAX TEMP:  81;

MIDDLETON      CLEAR     63  58  84 NW3       29.97R
6HR MIN TEMP:  62; 6HR MAX TEMP:  81;

WATERTOWN      PTCLDY    63  63 100 CALM      29.94F
6HR MIN TEMP:  63; 6HR MAX TEMP:  81;

MONROE         CLEAR     68  59  73 E7        29.95S
JANESVILLE     CLEAR     64  61  88 SE5       29.95R
$$

WIZ051-052-058>065-066-070>072-250700-
SOUTHEAST WISCONSIN

CITY           SKY/WX    TMP DP  RH WIND       PRES   REMARKS
MILWAUKEE      CLOUDY    63  52  67 CALM      29.95F
6HR MIN TEMP:  62; 6HR MAX TEMP:  72; 6HR PCP:  0.03;

WAUKESHA       PTCLDY    61  61 100 CALM      29.97S FOG
MILWAUKEE/TIMM PTCLDY    63  59  88 CALM      29.97R
RACINE         CLOUDY    64  51  62 CALM      29.97S
6HR MIN TEMP:  62; 6HR MAX TEMP:  71;

BURLINGTON     CLOUDY    67  59  75 CALM      29.96R
6HR MIN TEMP:  66; 6HR MAX TEMP:  78;

KENOSHA        CLOUDY    64  53  67 CALM      29.96S
6HR MIN TEMP:  62; 6HR MAX TEMP:  82; 6HR PCP: TRACE;

FOND DU LAC    CLEAR     59  57  93 S3        29.95S
6HR MIN TEMP:  58; 6HR MAX TEMP:  79;

SHEBOYGAN      CLEAR     55  53  93 CALM      29.95S FOG
6HR MIN TEMP:  55; 6HR MAX TEMP:  72;

WEST BEND      CLEAR     61  55  82 CALM      29.96S
JUNEAU         CLEAR     64  58  83 CALM      29.96S
6HR MIN TEMP:  62; 6HR MAX TEMP:  79;

$$

LSZ147-162-250700-
LAKE SUPERIOR

STATION/POSITION TIME  TEMP    WIND        PRES    WAVE
                       AIR SEA DIR/SP/G            HT/PER
                 (UTC) (F)     (DEG/KT/KT) (MB)    (FT/S)
W MID LAKE BUOY  0550   42 38   70/  8/  8 1017.4F   2/ 4
DEVILS ISLAND    0600   46      80/ 10/ 11 1017.5F
SAXON HARBOR     0540   46     330/  8/ 10 1016.6R
$$

LMZ867-665-643>646-250700-
LAKE MICHIGAN

STATION/POSITION TIME  TEMP    WIND        PRES    WAVE
                       AIR SEA DIR/SP/G            HT/PER
                 (UTC) (F)     (DEG/KT/KT) (MB)    (FT/S)
CHAMBERS ISLAND  0500   55      30/  5/  6 1014.6S
N MID LAKE BUOY  0550   47 44   80/  6/  6 1015.0R   2/ 4
NORTHPORT PIER   0500   53     310/  3/  6 1014.2F
SISTER BAY       0504   56        CALM       N/A
ALGOMA LAKESHORE 0517             CALM       N/A
KEWAUNEE LAKESHO 0500   59     250/  1/  3 1013.3F
SHEBOYGAN C1F1C2F2C3F3C4F4C5F5C6F6C7F7C8M1C9M2Ca!


USA.gov is the U.S. government's official web portal to all federal, state and local government web resources and services.